sat.trackr.live / text

‹ back to catalog

STARLINK-36327

NORAD 67738 · 2026-026T

PAYLOAD ACTIVE UNKNOWN

§ Identity

Operator
Country
US
Launch date
2026-02-11
Launch site
AFWTR
Launch vehicle
Mass (kg)
RCS (m²)

Purposes: comms

External: N2YO · Heavens-Above · Gunter

§ Orbital elements

Epoch: 2026-05-25T03:10:11.502912Z

Period
93.90 min
Inclination
97.2848°
Eccentricity
0.0000830
Mean motion
15.33486468 rev/d
Perigee alt
464.9 km
Apogee alt
466.0 km
Semi-major
6,843.6 km
B*
4.5208e-4
RAAN
198.6990°
Arg perigee
118.5757°
Mean anomaly
241.5569°
Rev number
1,584

§ Raw data

STARLINK-363271 67738U 26026T   26145.13207758  .00014567  00000+0  45208-3 0  99922 67738  97.2848 198.6990 0000830 118.5757 241.5569 15.33486468 15846

JSON: /api/v1/satellites/67738 · /tle

For live sub-satellite position, see the globe view (requires WebGL).

§ Visibility from observer

Set your observer location to see the next 7 days of passes ≥ 10°. The values pass through the URL so the page stays shareable.

No JS? Fill the form by hand. The geolocation button needs JavaScript.